world map with TIF marked

TIF - Airport

This information may not be accurate or current and is not valid for navigation or flight planning. No warranty of fitness for any purpose is made or implied.

flag of Saudi Arabia

Donate via PayPal

Additional information is available on the NEW Great Circle Mapper

Location
City:  Ta'if, Saudi Arabia
Near (Alt.):Taif
Name:Taif Airport
ICAO / IATA:OETF / TIF

Details
Type:Airport (Aerodrome, Airfield)
Use:Public/Civil
Latitude:21°29'00"N (21.483333)
Longitude:40°32'40"E (40.544444)
Elevation:4848 ft (1478 m)
Runways:2
Longest:12254 × 148 ft (3735 × 45 m)

Time
Timezone:UTC+3 (DST+5)
Local Time:

Weather
METAR:OETF  241000Z 12008KT 9999 FEW025CB BKN030 34/07 Q1018 NOSIG
TAF:OETF  241030Z 2412/2518 25014KT 9999 SCT030 TEMPO 2412/2418 6000 TSRA FEW025CB BKN030

Related Locations
Nearby:
Farthest:NTTX: 12395 mi / 19947 km
Mururoa Atoll, PF

Find:

   beyond  
but within

Other Information
Maps:
Links:
Sources:

  


 


Great Circle Mapper   Great Circle Mapper
Great Circle Mapper FAQ   Great Circle Mapper FAQ
  Karl's Home Page
KLSē   KLSē Home
   GC on Facebook
Airlines of the World   Airlines of the World
Donate via PayPal


Copyright © 2004-2015, Karl L. Swartz. All rights reserved.
All trademarks mentioned herein belong to their respective owners.

Please see credits for attribution and copyright information.

Karl Swartz <karl@kls2.com>
  Powered by FreeBSD
Valid HTML 4.01!
Labeled with ICRA
hCard Microformat
Geo Microformat